Regional Weather Roundup
Issued by NWS

Home | Current Version | Previous Version | Text Only | Print | Product List | Glossary On
Versions: 1 2 3 4 5 6 7 8 9 10 11 12 13 14 15 16 17 18 19 20 21 22 23 24 25 26 27 28 29 30 31 32 33 34 35 36 37 38 39 40 41 42 43 44 45 46 47 48 49 50
000
ASUS43 KDTX 151910
RWRMI
MICHIGAN HOURLY REGIONAL WEATHER ROUNDUP
NATIONAL WEATHER SERVICE DETROIT/PONTIAC MI
300 PM EDT MON SEP 15 2014

NOTE: "FAIR" INDICATES FEW OR NO CLOUDS BELOW 12,000 FEET WITH NO
SIGNIFICANT WEATHER AND/OR OBSTRUCTION TO VISIBILITY.

MIZ047>049-052>055-059>063-066>070-074>076-081>083-152000-
SOUTHEAST LOWER MICHIGAN

CITY           SKY/WX    TMP DP  RH WIND       PRES   REMARKS
ADRIAN         CLOUDY    59  52  77 W5        30.13F
ALMA           CLOUDY    60  53  77 S6        30.10F
ANN ARBOR      CLOUDY    59  49  69 W6        30.12F
BAD AXE        CLOUDY    60  53  78 SW10      30.10F
DETROIT CITY   CLOUDY    62  47  57 W7        30.12F
DETROIT        CLOUDY    59  49  69 S8        30.13F
FLINT          CLOUDY    61  49  64 W7        30.11F
GROSSE ILE     CLOUDY    59  52  77 SW3       30.11F
HILLSDALE      CLOUDY    60  50  69 SW3       30.12F
HOWELL         CLOUDY    61  49  65 SW6       30.10F

CITY           SKY/WX    TMP DP  RH WIND       PRES   REMARKS
JACKSON        CLOUDY    59  48  67 SW9       30.12F
LAMBERTVILLE   CLOUDY    61  52  72 CALM      30.13F
LANSING        CLOUDY    64  50  60 SW14      30.11F
LAPEER         NOT AVBL
MASON          CLOUDY    61  49  64 SW8       30.11F
MONROE         CLOUDY    61  54  77 W3        30.11F
MT. CLEMENS    CLOUDY    60  46  60 W6        30.10F
PONTIAC        CLOUDY    61  48  62 W8        30.10F
PORT HOPE        N/A     58  52  80 VRB3      30.08F
PORT HURON     CLOUDY    57  52  82 S3        30.12F
TRI CITIES     CLOUDY    60  51  72 SW6       30.11F
YPSILANTI      CLOUDY    62  49  62 SW8       30.13F
$$
MIZ043>046-050>051-056>058-064>065-071>073-077>080-152000-
SOUTHWEST LOWER MICHIGAN

CITY           SKY/WX    TMP DP  RH WIND       PRES   REMARKS
BATTLE CREEK   CLOUDY    63  48  58 W13       30.11F
BENTON HARBOR  CLOUDY    62  50  64 SW8       30.09F
BIG RAPIDS     RAIN      56  55  98 NW3       30.10F
COLDWATER      CLOUDY    60  51  72 SW7       30.12F
HOLLAND        CLOUDY    60  54  80 S7        30.10F
GRAND RAPIDS   CLOUDY    61  52  72 S3        30.09F
KALAMAZOO      CLOUDY    63  49  60 SW8       30.11F
MARSHALL       CLOUDY    60  49  67 SW6       30.11F
MUSKEGON       LGT RAIN  59  54  83 NE5       30.10F
$$
MIZ016>042-152000-
NORTHERN LOWER MICHIGAN

CITY           SKY/WX    TMP DP  RH WIND       PRES   REMARKS
ALPENA         CLOUDY    59  47  64 W7        30.07F
BEAVER ISLAND  MOSUNNY   62  46  55 W8        30.09S
BELLAIRE       PTSUNNY   60  42  51 NW6       30.09F
CADILLAC       CLOUDY    54  51  90 W3        30.09F
CHARLEVOIX     PTSUNNY   60  47  61 NW8       30.12F
FRANKFORT      CLOUDY    59  49  70 W8        30.10S
GAYLORD        CLOUDY    55  42  61 W3        30.08F
HARBOR SPRINGS PTSUNNY   63  45  52 SW10      30.08F
HOUGHTON LAKE  CLOUDY    54  45  71 NW5       30.10F
MANISTEE       CLOUDY    55  46  71 NW8       30.12S
OSCODA         LGT RAIN  55  54  94 SW3       30.09F
PELLSTON       MOSUNNY   63  42  46 N10       30.08F
TRAVERSE CITY  CLOUDY    58  49  72 W8        30.08F
$$
MIZ007>008-015-152000-
EASTERN UPPER MICHIGAN

CITY           SKY/WX    TMP DP  RH WIND       PRES   REMARKS
KINROSS        MOSUNNY   59  45  58 N10G17    30.07S
MACKINAC ISLAN SUNNY     58  47  65 W7        30.07F
NEWBERRY       PTSUNNY   58  42  55 NW10      30.07S
S. S. MARIE    SUNNY     57  43  59 W9        30.07R
$$
MIZ004>006-011>014-085-152000-
CENTRAL UPPER MICHIGAN

CITY           SKY/WX    TMP DP  RH WIND       PRES   REMARKS
MANISTIQUE     CLOUDY    57  49  74 S8        30.08S
ESCANABA       PTSUNNY   59  41  51 S14       30.08F
MENOMINEE      CLOUDY    57  46  67 SW8       30.09F
SAWYER-GWINN   PTSUNNY   55  46  71 NE8       30.09S
$$
MIZ001>003-009>011-084-152000-
WESTERN UPPER MICHIGAN

CITY           SKY/WX    TMP DP  RH WIND       PRES   REMARKS
IRON MOUNTAIN  LGT RAIN  59  42  53 NW9       30.08S
HOUGHTON       SUNNY     55  43  63 W16       30.10S
COPPER HARBOR    N/A     55  46  71 N17       30.08F
IRONWOOD       MOSUNNY   54  37  54 NW12      30.13S
$$

ABBREVIATIONS USED IN REMARKS
   TC - TEMPERATURE IN CELSIUS
  WCI - WIND CHILL INDEX
   HX - HEAT INDEX
  VSB - VISIBILITY



USA.gov is the U.S. government's official web portal to all federal, state and local government web resources and services.